| time (UTC) | temp F | wind direction | speed MPH | gust MPH | rain 1hr in | rain 24hr in | rain mn in | humidity % | barometer mb |
| 20260505053227 | 58 | 36 | 3.0 | 7.0 | 0.00 | 0.00 | 0.00 | 76 | 1008.1 |
| 20260505052724 | 58 | 44 | 3.0 | 10.0 | 0.00 | 0.00 | 0.00 | 76 | 1008.0 |
| 20260505052227 | 58 | 29 | 6.0 | 10.0 | 0.00 | 0.00 | 0.00 | 76 | 1008.0 |
| 20260505051727 | 58 | 51 | 4.0 | 7.0 | 0.00 | 0.00 | 0.00 | 76 | 1008.1 |
| 20260505051226 | 58 | 70 | 5.0 | 9.0 | 0.00 | 0.00 | 0.00 | 76 | 1008.1 |
| 20260505050728 | 58 | 19 | 5.0 | 9.0 | 0.00 | 0.00 | 0.00 | 76 | 1008.1 |
| 20260505050226 | 58 | 43 | 4.0 | 6.0 | 0.00 | 0.00 | 0.00 | 76 | 1008.1 |
| 20260505041724 | 59 | 67 | 2.0 | 3.0 | 0.00 | 0.00 | 0.00 | 75 | 1008.5 |
| 20260505041224 | 59 | 67 | 2.0 | 3.0 | 0.00 | 0.00 | 0.00 | 75 | 1008.5 |
| 20260505040704 | 59 | 67 | 1.0 | 4.0 | 0.00 | 0.00 | 0.00 | 75 | 1008.5 |
| 20260505040206 | 59 | 67 | 2.0 | 4.0 | 0.00 | 0.00 | 0.00 | 75 | 1008.4 |
| 20260505035705 | 59 | 58 | 2.0 | 4.0 | 0.00 | 0.00 | 0.00 | 75 | 1008.4 |
| 20260505035204 | 59 | 57 | 3.0 | 4.0 | 0.00 | 0.00 | 0.00 | 75 | 1008.5 |
| 20260505034703 | 59 | 80 | 2.0 | 5.0 | 0.00 | 0.00 | 0.00 | 75 | 1008.6 |
| 20260505034202 | 59 | 80 | 2.0 | 5.0 | 0.00 | 0.00 | 0.00 | 75 | 1008.7 |
| 20260505033705 | 59 | 81 | 2.0 | 5.0 | 0.00 | 0.00 | 0.00 | 75 | 1008.7 |
| 20260505033203 | 59 | 80 | 3.0 | 5.0 | 0.00 | 0.00 | 0.00 | 75 | 1008.8 |
| 20260505032703 | 59 | 71 | 1.0 | 3.0 | 0.00 | 0.00 | 0.00 | 75 | 1008.7 |
| 20260505032202 | 60 | 71 | 3.0 | 5.0 | 0.00 | 0.00 | 0.00 | 75 | 1008.8 |
| 20260505031703 | 60 | 71 | 2.0 | 5.0 | 0.00 | 0.00 | 0.00 | 75 | 1008.8 |
| 20260505031202 | 60 | 71 | 2.0 | 4.0 | 0.00 | 0.00 | 0.00 | 75 | 1008.8 |
| 20260505030704 | 60 | 73 | 2.0 | 4.0 | 0.00 | 0.00 | 0.00 | 75 | 1008.8 |
| 20260505030203 | 60 | 80 | 3.0 | 4.0 | 0.00 | 0.00 | 0.00 | 75 | 1008.8 |
| 20260505025947 | 60 | 85 | 3.0 | 4.0 | 0.00 | 0.00 | 0.00 | 75 | 1009.0 |
| 20260505025203 | 60 | 81 | 4.0 | 5.0 | 0.00 | 0.00 | 0.00 | 75 | 1009.1 |
| 20260505024951 | 59 | 74 | 3.0 | 6.0 | 0.00 | 0.00 | 0.00 | 75 | 1009.1 |
| 20260505024204 | 59 | 57 | 4.0 | 6.0 | 0.00 | 0.00 | 0.00 | 75 | 1009.1 |
| 20260505023704 | 59 | 65 | 2.0 | 5.0 | 0.00 | 0.00 | 0.00 | 75 | 1009.2 |
| 20260505023203 | 59 | 65 | 3.0 | 5.0 | 0.00 | 0.00 | 0.00 | 75 | 1009.3 |
| 20260505022706 | 59 | 347 | 3.0 | 4.0 | 0.00 | 0.00 | 0.00 | 75 | 1009.2 |
| 20260505022202 | 59 | 325 | 2.0 | 4.0 | 0.00 | 0.00 | 0.00 | 75 | 1009.3 |
| 20260505021704 | 58 | 324 | 2.0 | 4.0 | 0.00 | 0.00 | 0.00 | 75 | 1009.3 |
| 20260505021204 | 58 | 297 | 2.0 | 4.0 | 0.00 | 0.00 | 0.00 | 75 | 1009.3 |
| 20260505020704 | 58 | 292 | 2.0 | 3.0 | 0.00 | 0.00 | 0.00 | 75 | 1009.3 |
| 20260505020207 | 58 | 292 | 2.0 | 3.0 | 0.00 | 0.00 | 0.00 | 75 | 1009.3 |
| 20260505015703 | 58 | 292 | 2.0 | 3.0 | 0.00 | 0.00 | 0.00 | 75 | 1009.3 |
| 20260505015437 | 58 | 292 | 2.0 | 3.0 | 0.00 | 0.00 | 0.00 | 76 | 1009.3 |
| 20260505014702 | 58 | 290 | 2.0 | 3.0 | 0.00 | 0.00 | 0.00 | 76 | 1009.4 |
| 20260505014203 | 58 | 286 | 2.0 | 3.0 | 0.00 | 0.00 | 0.00 | 76 | 1009.4 |
| 20260505013650 | 57 | 286 | 2.0 | 3.0 | 0.00 | 0.00 | 0.00 | 76 | 1009.5 |
| 20260505013140 | 57 | 286 | 2.0 | 3.0 | 0.00 | 0.00 | 0.00 | 76 | 1009.6 |
| 20260505012638 | 57 | 286 | 2.0 | 3.0 | 0.00 | 0.00 | 0.00 | 76 | 1009.5 |
| 20260505012132 | 57 | 286 | 1.0 | 2.0 | 0.00 | 0.00 | 0.00 | 76 | 1009.6 |
| 20260505011634 | 57 | 286 | 0.0 | 2.0 | 0.00 | 0.00 | 0.00 | 76 | 1009.7 |
| 20260505011132 | 57 | 286 | 0.0 | 2.0 | 0.00 | 0.00 | 0.00 | 76 | 1009.7 |
| 20260505010635 | 57 | 286 | 1.0 | 2.0 | 0.00 | 0.00 | 0.00 | 77 | 1009.8 |
| 20260505010418 | 56 | 286 | 1.0 | 4.0 | 0.00 | 0.00 | 0.00 | 77 | 1009.7 |
| 20260505005633 | 56 | 286 | 1.0 | 4.0 | 0.00 | 0.00 | 0.00 | 77 | 1009.9 |
| 20260505005140 | 56 | 284 | 2.0 | 3.0 | 0.00 | 0.00 | 0.00 | 77 | 1009.9 |
| 20260505004636 | 56 | 284 | 1.0 | 2.0 | 0.00 | 0.00 | 0.00 | 77 | 1010.0 |
| 20260505004133 | 56 | 284 | 1.0 | 3.0 | 0.00 | 0.00 | 0.00 | 77 | 1009.9 |
| 20260505003644 | 56 | 284 | 2.0 | 3.0 | 0.00 | 0.00 | 0.00 | 77 | 1009.9 |
| 20260505003132 | 56 | 283 | 2.0 | 3.0 | 0.00 | 0.00 | 0.00 | 77 | 1009.9 |
| 20260505002634 | 56 | 268 | 0.0 | 0.0 | 0.00 | 0.00 | 0.00 | 76 | 1010.0 |
| 20260505002132 | 56 | 268 | 0.0 | 0.0 | 0.00 | 0.00 | 0.00 | 76 | 1010.1 |
| 20260505001632 | 56 | 268 | 0.0 | 0.0 | 0.00 | 0.00 | 0.00 | 76 | 1010.2 |
| 20260505001134 | 56 | 268 | 0.0 | 1.0 | 0.00 | 0.00 | 0.00 | 76 | 1010.2 |
| 20260505001000 | 56 | 268 | 0.0 | 1.0 | 0.00 | 0.00 | 0.00 | 76 | 1010.3 |
| 20260505000705 | 56 | 268 | 0.0 | 1.0 | 0.00 | 0.00 | 0.00 | 76 | 1010.3 |
| 20260504235729 | 56 | 268 | 1.0 | 2.0 | 0.00 | 0.00 | 0.00 | 76 | 1010.5 |
| 20260504235708 | 56 | 268 | 0.0 | 2.0 | 0.00 | 0.00 | 0.00 | 76 | 1010.4 |
| 20260504234636 | 56 | 268 | 1.0 | 2.0 | 0.00 | 0.00 | 0.00 | 75 | 1010.5 |
| 20260504234131 | 56 | 268 | 1.0 | 2.0 | 0.00 | 0.00 | 0.00 | 75 | 1010.4 |
| 20260504233915 | 56 | 268 | 1.0 | 2.0 | 0.00 | 0.00 | 0.00 | 75 | 1010.4 |
| 20260504233132 | 56 | 268 | 0.0 | 0.0 | 0.00 | 0.00 | 0.00 | 75 | 1010.3 |
| 20260504232634 | 57 | 268 | 0.0 | 0.0 | 0.00 | 0.00 | 0.00 | 75 | 1010.3 |
| 20260504232414 | 57 | 268 | 0.0 | 1.0 | 0.00 | 0.00 | 0.00 | 75 | 1010.4 |
| 20260504231633 | 57 | 268 | 0.0 | 2.0 | 0.00 | 0.00 | 0.00 | 74 | 1010.4 |
| 20260504231132 | 57 | 268 | 1.0 | 2.0 | 0.00 | 0.00 | 0.00 | 74 | 1010.4 |
| 20260504230633 | 57 | 268 | 1.0 | 1.0 | 0.00 | 0.00 | 0.00 | 74 | 1010.7 |
| 20260504230133 | 57 | 268 | 0.0 | 0.0 | 0.00 | 0.00 | 0.00 | 74 | 1010.5 |
| 20260504225633 | 58 | 268 | 0.0 | 0.0 | 0.00 | 0.00 | 0.00 | 74 | 1010.7 |
| 20260504225132 | 58 | 268 | 0.0 | 0.0 | 0.00 | 0.00 | 0.00 | 74 | 1010.7 |
| 20260504224634 | 58 | 268 | 0.0 | 0.0 | 0.00 | 0.00 | 0.00 | 74 | 1010.7 |
| 20260504224132 | 58 | 268 | 0.0 | 0.0 | 0.00 | 0.00 | 0.00 | 74 | 1010.7 |
| 20260504223634 | 58 | 268 | 0.0 | 0.0 | 0.00 | 0.00 | 0.00 | 74 | 1010.5 |
| 20260504223133 | 58 | 268 | 0.0 | 0.0 | 0.00 | 0.00 | 0.00 | 74 | 1010.8 |
| 20260504222635 | 58 | 268 | 0.0 | 0.0 | 0.00 | 0.00 | 0.00 | 73 | 1010.7 |
| 20260504222139 | 58 | 268 | 0.0 | 0.0 | 0.00 | 0.00 | 0.00 | 73 | 1010.8 |
| 20260504221632 | 58 | 268 | 0.0 | 0.0 | 0.00 | 0.00 | 0.00 | 73 | 1010.8 |
| 20260504221131 | 59 | 268 | 0.0 | 0.0 | 0.00 | 0.00 | 0.00 | 73 | 1010.9 |
| 20260504220636 | 59 | 268 | 0.0 | 0.0 | 0.00 | 0.00 | 0.00 | 73 | 1010.8 |
| 20260504220133 | 59 | 268 | 0.0 | 0.0 | 0.00 | 0.00 | 0.00 | 73 | 1010.9 |
| 20260504215621 | 59 | 268 | 0.0 | 0.0 | 0.00 | 0.00 | 0.00 | 72 | 1010.9 |
| 20260504215118 | 59 | 268 | 0.0 | 1.0 | 0.00 | 0.00 | 0.00 | 72 | 1010.8 |
| 20260504214620 | 59 | 268 | 0.0 | 1.0 | 0.00 | 0.00 | 0.00 | 72 | 1010.9 |
| 20260504214116 | 60 | 268 | 0.0 | 1.0 | 0.00 | 0.00 | 0.00 | 71 | 1010.9 |
| 20260504213623 | 60 | 268 | 0.0 | 0.0 | 0.00 | 0.00 | 0.00 | 71 | 1010.9 |
| 20260504213119 | 60 | 268 | 0.0 | 0.0 | 0.00 | 0.00 | 0.00 | 71 | 1011.0 |
| 20260504212621 | 60 | 268 | 0.0 | 0.0 | 0.00 | 0.00 | 0.00 | 71 | 1010.9 |
| 20260504212118 | 60 | 268 | 0.0 | 1.0 | 0.00 | 0.00 | 0.00 | 71 | 1011.0 |
| 20260504211621 | 60 | 268 | 0.0 | 1.0 | 0.00 | 0.00 | 0.00 | 70 | 1011.0 |
| 20260504211117 | 60 | 268 | 0.0 | 1.0 | 0.00 | 0.00 | 0.00 | 70 | 1011.1 |
| 20260504210622 | 60 | 268 | 0.0 | 0.0 | 0.00 | 0.00 | 0.00 | 69 | 1010.9 |
| 20260504210118 | 60 | 268 | 0.0 | 2.0 | 0.00 | 0.00 | 0.00 | 69 | 1011.0 |
| 20260504205623 | 61 | 268 | 0.0 | 2.0 | 0.00 | 0.00 | 0.00 | 69 | 1010.9 |
| 20260504205118 | 61 | 268 | 2.0 | 2.0 | 0.00 | 0.00 | 0.00 | 68 | 1011.0 |
| 20260504204622 | 61 | 268 | 0.0 | 0.0 | 0.00 | 0.00 | 0.00 | 67 | 1010.9 |
| 20260504204117 | 61 | 268 | 0.0 | 0.0 | 0.00 | 0.00 | 0.00 | 67 | 1010.9 |
| 20260504203624 | 62 | 268 | 0.0 | 0.0 | 0.00 | 0.00 | 0.00 | 67 | 1011.0 |
| 20260504203117 | 62 | 268 | 0.0 | 0.0 | 0.00 | 0.00 | 0.00 | 66 | 1010.9 |
| 20260504202618 | 62 | 268 | 0.0 | 0.0 | 0.00 | 0.00 | 0.00 | 66 | 1011.0 |
| 20260504202117 | 62 | 268 | 0.0 | 0.0 | 0.00 | 0.00 | 0.00 | 65 | 1011.0 |
| 20260504201700 | 63 | 268 | 0.0 | 0.0 | 0.00 | 0.00 | 0.00 | 64 | 1011.0 |
| 20260504201645 | 63 | 268 | 0.0 | 0.0 | 0.00 | 0.00 | 0.00 | 65 | 1011.1 |
| 20260504200624 | 63 | 268 | 0.0 | 0.0 | 0.00 | 0.00 | 0.00 | 63 | 1011.0 |
| 20260504200407 | 0 | 0.0 | 0.0 | 0.00 | 0.00 | 0.00 | 1011.0 | ||
| 20260504195834 | 64 | 268 | 0.0 | 0.0 | 0.00 | 0.00 | 0.00 | 62 | 1011.0 |
| 20260504195333 | 64 | 268 | 0.0 | 2.0 | 0.00 | 0.00 | 0.00 | 62 | 1011.1 |
| 20260504194832 | 64 | 268 | 1.0 | 2.0 | 0.00 | 0.00 | 0.00 | 61 | 1011.0 |
| 20260504194614 | 64 | 268 | 1.0 | 2.0 | 0.00 | 0.00 | 0.00 | 60 | 1011.0 |
| 20260504193833 | 64 | 268 | 2.0 | 2.0 | 0.00 | 0.00 | 0.00 | 60 | 1011.1 |
| 20260504193323 | 65 | 268 | 1.0 | 2.0 | 0.00 | 0.00 | 0.00 | 60 | 1011.0 |
| 20260504193041 | 65 | 268 | 1.0 | 2.0 | 0.00 | 0.00 | 0.00 | 60 | 1011.0 |
| 20260504192306 | 65 | 268 | 1.0 | 2.0 | 0.00 | 0.00 | 0.00 | 59 | 1010.8 |
| 20260504192046 | 66 | 268 | 1.0 | 2.0 | 0.00 | 0.00 | 0.00 | 59 | 1010.8 |
| 20260504191306 | 66 | 268 | 1.0 | 1.0 | 0.00 | 0.00 | 0.00 | 59 | 1010.9 |
| 20260504190806 | 67 | 268 | 0.0 | 0.0 | 0.00 | 0.00 | 0.00 | 57 | 1010.8 |
| 20260504190306 | 67 | 268 | 0.0 | 2.0 | 0.00 | 0.00 | 0.00 | 56 | 1010.8 |
| 20260504190035 | 67 | 268 | 1.0 | 2.0 | 0.00 | 0.00 | 0.00 | 56 | 1010.8 |
| 20260504185304 | 68 | 268 | 1.0 | 2.0 | 0.00 | 0.00 | 0.00 | 55 | 1010.8 |
| 20260504184805 | 68 | 268 | 0.0 | 2.0 | 0.00 | 0.00 | 0.00 | 55 | 1010.8 |
| 20260504184259 | 69 | 268 | 1.0 | 3.0 | 0.00 | 0.00 | 0.00 | 54 | 1010.7 |
| 20260504183734 | 69 | 245 | 2.0 | 3.0 | 0.00 | 0.00 | 0.00 | 53 | 1010.7 |
| 20260504183515 | 69 | 234 | 1.0 | 3.0 | 0.00 | 0.00 | 0.00 | 53 | 1010.5 |
| 20260504182733 | 70 | 272 | 1.0 | 3.0 | 0.00 | 0.00 | 0.00 | 53 | 1010.4 |
| 20260504182514 | 70 | 306 | 1.0 | 2.0 | 0.00 | 0.00 | 0.00 | 52 | 1010.4 |
| 20260504182029 | 70 | 306 | 0.0 | 4.0 | 0.00 | 0.00 | 0.00 | 52 | 1010.4 |
| 20260504181234 | 71 | 306 | 1.0 | 4.0 | 0.00 | 0.00 | 0.00 | 52 | 1010.4 |
| 20260504180733 | 71 | 310 | 2.0 | 4.0 | 0.00 | 0.00 | 0.00 | 52 | 1010.3 |
| 20260504180527 | 71 | 307 | 2.0 | 3.0 | 0.00 | 0.00 | 0.00 | 52 | 1010.3 |
| 20260504180243 | 71 | 307 | 3.0 | 4.0 | 0.00 | 0.00 | 0.00 | 52 | 1010.3 |
| 20260504175232 | 72 | 307 | 2.0 | 4.0 | 0.00 | 0.00 | 0.00 | 51 | 1010.3 |
| 20260504174733 | 72 | 311 | 2.0 | 4.0 | 0.00 | 0.00 | 0.00 | 51 | 1010.2 |
| 20260504174233 | 72 | 313 | 1.0 | 3.0 | 0.00 | 0.00 | 0.00 | 50 | 1010.2 |
| 20260504173732 | 72 | 317 | 2.0 | 4.0 | 0.00 | 0.00 | 0.00 | 50 | 1010.2 |
| 20260504173233 | 72 | 317 | 3.0 | 4.0 | 0.00 | 0.00 | 0.00 | 49 | 1010.2 |
| 20260504172733 | 72 | 315 | 2.0 | 4.0 | 0.00 | 0.00 | 0.00 | 50 | 1010.2 |
| 20260504172234 | 73 | 318 | 3.0 | 6.0 | 0.00 | 0.00 | 0.00 | 50 | 1010.3 |
| 20260504171734 | 73 | 320 | 2.0 | 6.0 | 0.00 | 0.00 | 0.00 | 50 | 1010.3 |
| 20260504171233 | 73 | 311 | 2.0 | 7.0 | 0.00 | 0.00 | 0.00 | 50 | 1010.3 |
| 20260504170729 | 73 | 308 | 4.0 | 7.0 | 0.00 | 0.00 | 0.00 | 50 | 1010.3 |
| 20260504170230 | 73 | 313 | 3.0 | 5.0 | 0.00 | 0.00 | 0.00 | 50 | 1010.3 |
| 20260504160353 | 76 | 294 | 4.0 | 7.0 | 0.00 | 0.00 | 0.00 | 44 | 1010.2 |
| 20260504150847 | 77 | 273 | 3.0 | 10.0 | 0.00 | 0.00 | 0.00 | 42 | 1010.4 |
| 20260504150346 | 77 | 293 | 5.0 | 13.0 | 0.00 | 0.00 | 0.00 | 43 | 1010.3 |
| 20260504140845 | 79 | 320 | 5.0 | 10.0 | 0.00 | 0.00 | 0.00 | 41 | 1010.8 |
| 20260504140348 | 79 | 318 | 3.0 | 9.0 | 0.00 | 0.00 | 0.00 | 41 | 1010.8 |
| 20260504130344 | 77 | 303 | 3.0 | 6.0 | 0.00 | 0.00 | 0.00 | 43 | 1011.2 |
| 20260504120139 | 77 | 256 | 5.0 | 10.0 | 0.00 | 0.00 | 0.00 | 46 | 1011.6 |
| 20260504110341 | 77 | 253 | 4.0 | 7.0 | 0.00 | 0.00 | 0.00 | 45 | 1011.9 |
| 20260504100612 | 77 | 272 | 6.0 | 10.0 | 0.00 | 0.00 | 0.00 | 46 | 1012.4 |
| 20260504081804 | 70 | 246 | 4.0 | 7.0 | 0.00 | 0.00 | 0.00 | 54 | 1012.7 |
| 20260504081305 | 70 | 222 | 5.0 | 7.0 | 0.00 | 0.00 | 0.00 | 54 | 1012.8 |
| 20260504080806 | 69 | 206 | 4.0 | 7.0 | 0.00 | 0.00 | 0.00 | 55 | 1012.7 |
| 20260504080550 | 69 | 235 | 4.0 | 7.0 | 0.00 | 0.00 | 0.00 | 55 | 1012.8 |
| 20260504070303 | 69 | 262 | 5.0 | 9.0 | 0.00 | 0.00 | 0.00 | 54 | 1012.5 |